Time,TemperatureF,DewpointF,PressureIn,WindDirection,WindDirectionDegrees,WindSpeedMPH,WindSpeedGustMPH,Humidity,HourlyPrecipIn,Conditions,Clouds,dailyrainin,SoftwareType,DateUTC
2013-03-23 00:00:00,24.5,24.5,28.99,SSE,164,1.0,4.0,100,0.00,,CLR,0.00,VWS V14.01,2013-03-23 05:00:00,
2013-03-23 00:05:00,24.5,24.5,28.99,SSE,164,1.0,4.0,100,0.00,,CLR,0.00,VWS V14.01,2013-03-23 05:05:00,
2013-03-23 00:10:00,24.5,24.5,28.98,SSE,164,2.0,2.0,100,0.00,,CLR,0.00,VWS V14.01,2013-03-23 05:10:00,
2013-03-23 00:15:00,24.5,24.5,28.98,SSE,164,1.0,4.0,100,0.00,,CLR,0.00,VWS V14.01,2013-03-23 05:15:00,
2013-03-23 00:20:00,24.6,24.6,28.98,SSE,164,2.0,3.0,100,0.00,,CLR,0.00,VWS V14.01,2013-03-23 05:20:00,
2013-03-23 00:25:00,24.6,24.6,28.98,SSE,164,1.0,3.0,100,0.00,,CLR,0.00,VWS V14.01,2013-03-23 05:25:00,
2013-03-23 00:30:00,24.6,24.6,28.98,SSE,164,2.0,2.0,100,0.00,,CLR,0.00,VWS V14.01,2013-03-23 05:30:00,
2013-03-23 00:35:00,24.6,24.6,28.99,SSE,164,2.0,3.0,100,0.00,,CLR,0.00,VWS V14.01,2013-03-23 05:35:00,
2013-03-23 00:40:00,24.6,24.6,28.98,SSE,164,3.0,3.0,100,0.00,,CLR,0.00,VWS V14.01,2013-03-23 05:40:00,
2013-03-23 00:45:00,24.6,24.6,28.98,SSE,164,1.0,3.0,100,0.00,,CLR,0.00,VWS V14.01,2013-03-23 05:45:00,
2013-03-23 00:50:00,24.6,24.6,28.98,SSE,164,1.0,2.0,100,0.00,,CLR,0.00,VWS V14.01,2013-03-23 05:50:00,
2013-03-23 00:55:00,24.6,24.6,28.98,SSE,164,0.0,2.0,100,0.00,,CLR,0.00,VWS V14.01,2013-03-23 05:55:00,
2013-03-23 01:00:00,24.5,24.5,28.98,SSE,164,0.0,0.0,100,0.00,,CLR,0.00,VWS V14.01,2013-03-23 06:00:00,
2013-03-23 01:05:00,24.6,24.6,28.98,SSE,164,0.0,0.0,100,0.00,,CLR,0.00,VWS V14.01,2013-03-23 06:05:00,
2013-03-23 01:10:00,24.6,24.6,28.98,SSE,164,0.0,0.0,100,0.00,,CLR,0.00,VWS V14.01,2013-03-23 06:10:00,
2013-03-23 01:15:00,24.7,24.7,28.98,SSE,164,0.0,2.0,100,0.00,,CLR,0.00,VWS V14.01,2013-03-23 06:15:00,
2013-03-23 01:20:00,24.8,24.8,28.98,SSE,164,0.0,2.0,100,0.00,,CLR,0.00,VWS V14.01,2013-03-23 06:20:00,
2013-03-23 01:25:00,24.8,24.8,28.98,SSE,164,0.0,2.0,100,0.00,,CLR,0.00,VWS V14.01,2013-03-23 06:25:00,
2013-03-23 01:30:00,24.9,24.9,28.98,SSE,164,0.0,0.0,100,0.00,,CLR,0.00,VWS V14.01,2013-03-23 06:30:00,
2013-03-23 01:35:00,24.9,24.9,28.99,SSE,164,0.0,0.0,100,0.00,,CLR,0.00,VWS V14.01,2013-03-23 06:35:00,
2013-03-23 01:40:00,24.9,24.9,28.98,SSE,164,0.0,0.0,100,0.00,,CLR,0.00,VWS V14.01,2013-03-23 06:40:00,
2013-03-23 01:45:00,25.0,25.0,28.98,SSE,164,0.0,0.0,100,0.00,,CLR,0.00,VWS V14.01,2013-03-23 06:45:00,
2013-03-23 01:50:00,25.1,25.1,28.98,SSE,164,0.0,0.0,100,0.00,,CLR,0.00,VWS V14.01,2013-03-23 06:50:00,
2013-03-23 01:55:00,25.1,25.1,28.98,SSE,164,0.0,0.0,100,0.00,,CLR,0.00,VWS V14.01,2013-03-23 06:55:00,
2013-03-23 02:00:00,25.0,25.0,28.99,SSE,164,0.0,0.0,100,0.00,,CLR,0.00,VWS V14.01,2013-03-23 07:00:00,
2013-03-23 02:05:00,25.0,25.0,28.98,SSE,164,0.0,0.0,100,0.00,,CLR,0.00,VWS V14.01,2013-03-23 07:05:00,
2013-03-23 02:10:00,24.9,24.9,28.98,SSE,164,0.0,0.0,100,0.00,,CLR,0.00,VWS V14.01,2013-03-23 07:10:00,
2013-03-23 02:15:00,24.9,24.9,28.99,SSE,164,0.0,0.0,100,0.00,,CLR,0.00,VWS V14.01,2013-03-23 07:15:00,
2013-03-23 02:20:00,24.7,24.7,28.99,SSE,164,0.0,0.0,100,0.00,,CLR,0.00,VWS V14.01,2013-03-23 07:20:00,
2013-03-23 02:25:00,24.4,24.4,28.99,SSE,164,0.0,0.0,100,0.00,,CLR,0.00,VWS V14.01,2013-03-23 07:25:00,
2013-03-23 02:30:00,24.2,24.2,28.99,SSE,166,1.0,2.0,100,0.00,,CLR,0.00,VWS V14.01,2013-03-23 07:30:00,
2013-03-23 02:35:00,24.2,24.2,28.99,SSW,209,0.0,3.0,100,0.00,,CLR,0.00,VWS V14.01,2013-03-23 07:35:00,
2013-03-23 02:40:00,24.1,24.1,28.98,SSW,209,2.0,2.0,100,0.00,,CLR,0.00,VWS V14.01,2013-03-23 07:40:00,
2013-03-23 02:45:00,24.1,24.1,28.99,SW,216,2.0,2.0,100,0.00,,CLR,0.00,VWS V14.01,2013-03-23 07:45:00,
2013-03-23 02:50:00,24.2,24.2,28.99,SW,216,1.0,2.0,100,0.00,,CLR,0.00,VWS V14.01,2013-03-23 07:50:00,
2013-03-23 02:55:00,24.1,24.1,28.99,SW,216,2.0,3.0,100,0.00,,CLR,0.00,VWS V14.01,2013-03-23 07:55:00,
2013-03-23 03:00:00,24.0,24.0,28.98,SW,216,0.0,0.0,100,0.00,,CLR,0.00,VWS V14.01,2013-03-23 08:00:00,
2013-03-23 03:05:00,23.9,23.9,28.98,SW,216,0.0,0.0,100,0.00,,CLR,0.00,VWS V14.01,2013-03-23 08:05:00,
2013-03-23 03:10:00,23.9,23.9,28.99,SW,216,0.0,0.0,100,0.00,,CLR,0.00,VWS V14.01,2013-03-23 08:10:00,
2013-03-23 03:15:00,23.8,23.8,28.98,SW,216,1.0,2.0,100,0.00,,CLR,0.00,VWS V14.01,2013-03-23 08:15:00,
2013-03-23 03:20:00,23.7,23.7,28.98,SW,216,0.0,1.0,100,0.00,,CLR,0.00,VWS V14.01,2013-03-23 08:20:00,
2013-03-23 03:25:00,23.7,23.7,28.98,SW,216,0.0,1.0,100,0.00,,CLR,0.00,VWS V14.01,2013-03-23 08:25:00,
2013-03-23 03:30:00,23.6,23.6,28.97,SW,216,0.0,0.0,100,0.00,,CLR,0.00,VWS V14.01,2013-03-23 08:30:00,
2013-03-23 03:35:00,23.5,23.5,28.97,SW,216,0.0,0.0,100,0.00,,CLR,0.00,VWS V14.01,2013-03-23 08:35:00,
2013-03-23 03:40:00,23.5,23.5,28.97,SW,216,0.0,0.0,100,0.00,,CLR,0.00,VWS V14.01,2013-03-23 08:40:00,
2013-03-23 03:45:00,23.4,23.4,28.97,SW,216,0.0,0.0,100,0.00,,CLR,0.00,VWS V14.01,2013-03-23 08:45:00,
2013-03-23 03:50:00,23.4,23.4,28.97,SW,216,0.0,0.0,100,0.00,,CLR,0.00,VWS V14.01,2013-03-23 08:50:00,
2013-03-23 03:55:00,23.4,23.4,28.97,SW,216,0.0,0.0,100,0.00,,CLR,0.00,VWS V14.01,2013-03-23 08:55:00,
2013-03-23 04:00:00,23.4,23.4,28.97,SW,216,0.0,0.0,100,0.00,,CLR,0.00,VWS V14.01,2013-03-23 09:00:00,
2013-03-23 04:05:00,23.3,23.3,28.97,SW,216,0.0,0.0,100,0.00,,CLR,0.00,VWS V14.01,2013-03-23 09:05:00,
2013-03-23 04:10:00,23.3,23.3,28.97,SW,216,0.0,0.0,100,0.00,,CLR,0.00,VWS V14.01,2013-03-23 09:10:00,
2013-03-23 04:15:00,23.3,23.3,28.97,SW,216,0.0,0.0,100,0.00,,CLR,0.00,VWS V14.01,2013-03-23 09:15:00,
2013-03-23 04:20:00,23.3,23.3,28.97,SW,216,0.0,0.0,100,0.00,,CLR,0.00,VWS V14.01,2013-03-23 09:20:00,
2013-03-23 04:25:00,23.3,23.3,28.97,SW,216,0.0,0.0,100,0.00,,CLR,0.00,VWS V14.01,2013-03-23 09:25:00,
2013-03-23 04:30:00,23.4,23.4,28.97,SW,216,0.0,0.0,100,0.00,,CLR,0.00,VWS V14.01,2013-03-23 09:30:00,
2013-03-23 04:35:00,23.5,23.5,28.97,SW,216,0.0,0.0,100,0.00,,CLR,0.00,VWS V14.01,2013-03-23 09:35:00,
2013-03-23 04:40:00,23.5,23.5,28.97,SW,216,0.0,0.0,100,0.00,,CLR,0.00,VWS V14.01,2013-03-23 09:40:00,
2013-03-23 04:45:00,23.4,23.4,28.97,SW,216,0.0,0.0,100,0.00,,CLR,0.00,VWS V14.01,2013-03-23 09:45:00,
2013-03-23 04:50:00,23.4,23.4,28.96,SW,216,0.0,0.0,100,0.00,,CLR,0.00,VWS V14.01,2013-03-23 09:50:00,
2013-03-23 04:55:00,23.4,23.4,28.97,SW,216,0.0,0.0,100,0.00,,CLR,0.00,VWS V14.01,2013-03-23 09:55:00,
2013-03-23 05:00:00,23.4,23.4,28.97,SW,216,0.0,0.0,100,0.00,,CLR,0.00,VWS V14.01,2013-03-23 10:00:00,
2013-03-23 05:05:00,23.5,23.5,28.97,SW,216,0.0,0.0,100,0.00,,CLR,0.00,VWS V14.01,2013-03-23 10:05:00,
2013-03-23 05:10:00,23.5,23.5,28.96,SW,216,0.0,0.0,100,0.00,,CLR,0.00,VWS V14.01,2013-03-23 10:10:00,
2013-03-23 05:15:00,23.5,23.5,28.97,SW,216,0.0,0.0,100,0.00,,CLR,0.00,VWS V14.01,2013-03-23 10:15:00,
2013-03-23 05:20:00,23.5,23.5,28.97,SW,216,0.0,0.0,100,0.00,,CLR,0.00,VWS V14.01,2013-03-23 10:20:00,
2013-03-23 05:25:00,23.4,23.4,28.97,SW,216,0.0,0.0,100,0.00,,CLR,0.00,VWS V14.01,2013-03-23 10:25:00,
2013-03-23 05:30:00,23.3,23.3,28.98,SW,216,0.0,0.0,100,0.00,,CLR,0.00,VWS V14.01,2013-03-23 10:30:00,
2013-03-23 05:35:00,23.1,23.1,28.98,SW,216,0.0,0.0,100,0.00,,CLR,0.00,VWS V14.01,2013-03-23 10:35:00,
2013-03-23 05:40:00,22.8,22.8,28.98,SW,216,0.0,0.0,100,0.00,,CLR,0.00,VWS V14.01,2013-03-23 10:40:00,
2013-03-23 05:45:00,22.6,22.6,28.98,SW,216,0.0,2.0,100,0.00,,CLR,0.00,VWS V14.01,2013-03-23 10:45:00,
2013-03-23 05:50:00,22.5,22.5,28.99,SW,216,1.0,2.0,100,0.00,,CLR,0.00,VWS V14.01,2013-03-23 10:50:00,
2013-03-23 05:55:00,22.4,22.4,28.99,SW,216,1.0,2.0,100,0.00,,CLR,0.00,VWS V14.01,2013-03-23 10:55:00,
2013-03-23 06:00:00,22.3,22.3,28.99,SW,216,1.0,2.0,100,0.00,,CLR,0.00,VWS V14.01,2013-03-23 11:00:00,
2013-03-23 06:05:00,22.3,22.3,28.99,SW,216,1.0,2.0,100,0.00,,CLR,0.00,VWS V14.01,2013-03-23 11:05:00,
2013-03-23 06:10:00,22.2,22.2,28.99,SW,216,0.0,0.0,100,0.00,,CLR,0.00,VWS V14.01,2013-03-23 11:10:00,
2013-03-23 06:15:00,22.2,22.2,28.99,SW,216,0.0,2.0,100,0.00,,CLR,0.00,VWS V14.01,2013-03-23 11:15:00,
2013-03-23 06:20:00,22.2,22.2,28.99,SW,216,0.0,0.0,100,0.00,,CLR,0.00,VWS V14.01,2013-03-23 11:20:00,
2013-03-23 06:25:00,22.3,22.3,29.00,SW,216,0.0,1.0,100,0.00,,CLR,0.00,VWS V14.01,2013-03-23 11:25:00,
2013-03-23 06:30:00,22.5,22.5,29.00,SW,216,0.0,0.0,100,0.00,,CLR,0.00,VWS V14.01,2013-03-23 11:30:00,
2013-03-23 06:35:00,22.5,22.5,29.00,SW,216,0.0,0.0,100,0.00,,CLR,0.00,VWS V14.01,2013-03-23 11:35:00,
2013-03-23 06:40:00,22.5,22.5,29.00,SW,216,0.0,2.0,100,0.00,,CLR,0.00,VWS V14.01,2013-03-23 11:40:00,
2013-03-23 06:45:00,22.6,22.6,29.00,SW,216,0.0,2.0,100,0.00,,CLR,0.00,VWS V14.01,2013-03-23 11:45:00,
2013-03-23 06:50:00,22.5,22.5,29.01,SW,216,1.0,1.0,100,0.00,,CLR,0.00,VWS V14.01,2013-03-23 11:50:00,
2013-03-23 06:55:00,22.5,22.5,29.01,SW,216,0.0,2.0,100,0.00,,CLR,0.00,VWS V14.01,2013-03-23 11:55:00,
2013-03-23 07:00:00,22.5,22.5,29.01,SW,216,0.0,0.0,100,0.00,,CLR,0.00,VWS V14.01,2013-03-23 12:00:00,
2013-03-23 07:05:00,22.4,22.4,29.01,SW,216,1.0,1.0,100,0.00,,CLR,0.00,VWS V14.01,2013-03-23 12:05:00,
2013-03-23 07:10:00,22.3,22.3,29.01,SW,216,1.0,2.0,100,0.00,,CLR,0.00,VWS V14.01,2013-03-23 12:10:00,
2013-03-23 07:15:00,22.1,22.1,29.01,West,263,2.0,3.0,100,0.00,,CLR,0.00,VWS V14.01,2013-03-23 12:15:00,
2013-03-23 07:20:00,22.1,22.1,29.02,West,274,3.0,4.0,100,0.00,,CLR,0.00,VWS V14.01,2013-03-23 12:20:00,
2013-03-23 07:25:00,22.0,22.0,29.01,West,263,1.0,5.0,100,0.00,,CLR,0.00,VWS V14.01,2013-03-23 12:25:00,
2013-03-23 07:30:00,21.9,21.9,29.02,West,268,3.0,3.0,100,0.00,,CLR,0.00,VWS V14.01,2013-03-23 12:30:00,
2013-03-23 07:35:00,21.8,21.8,29.03,WNW,283,1.0,5.0,100,0.00,,CLR,0.00,VWS V14.01,2013-03-23 12:35:00,
2013-03-23 07:40:00,21.7,21.7,29.02,WNW,283,2.0,2.0,100,0.00,,CLR,0.00,VWS V14.01,2013-03-23 12:40:00,
2013-03-23 07:45:00,21.7,21.7,29.03,WNW,282,1.0,3.0,100,0.00,,CLR,0.00,VWS V14.01,2013-03-23 12:45:00,
2013-03-23 07:50:00,21.8,21.8,29.03,West,271,1.0,4.0,100,0.00,,CLR,0.00,VWS V14.01,2013-03-23 12:50:00,
2013-03-23 07:55:00,22.0,22.0,29.03,WNW,282,1.0,4.0,100,0.00,,CLR,0.00,VWS V14.01,2013-03-23 12:55:00,
2013-03-23 08:00:00,22.1,22.1,29.03,WNW,282,0.0,0.0,100,0.00,,CLR,0.00,VWS V14.01,2013-03-23 13:00:00,
2013-03-23 08:05:00,22.2,22.2,29.03,WNW,285,0.0,1.0,100,0.00,,CLR,0.00,VWS V14.01,2013-03-23 13:05:00,
2013-03-23 08:10:00,22.3,22.3,29.03,WNW,285,0.0,0.0,100,0.00,,CLR,0.00,VWS V14.01,2013-03-23 13:10:00,
2013-03-23 08:15:00,22.4,22.4,29.03,WNW,285,0.0,2.0,100,0.00,,CLR,0.00,VWS V14.01,2013-03-23 13:15:00,
2013-03-23 08:20:00,22.5,22.5,29.03,North,0,0.0,2.0,100,0.00,,CLR,0.00,VWS V14.01,2013-03-23 13:20:00,
2013-03-23 08:25:00,22.6,22.6,29.03,North,0,0.0,2.0,100,0.00,,CLR,0.00,VWS V14.01,2013-03-23 13:25:00,
2013-03-23 08:30:00,22.8,22.8,29.03,North,0,0.0,0.0,100,0.00,,CLR,0.00,VWS V14.01,2013-03-23 13:30:00,
2013-03-23 08:35:00,23.0,23.0,29.03,North,0,0.0,0.0,100,0.00,,CLR,0.00,VWS V14.01,2013-03-23 13:35:00,
2013-03-23 08:40:00,23.2,23.2,29.03,North,0,0.0,0.0,100,0.00,,CLR,0.00,VWS V14.01,2013-03-23 13:40:00,
2013-03-23 08:45:00,23.5,23.5,29.03,North,0,0.0,0.0,100,0.00,,CLR,0.00,VWS V14.01,2013-03-23 13:45:00,
2013-03-23 08:50:00,23.6,23.6,29.03,North,0,0.0,0.0,100,0.00,,CLR,0.00,VWS V14.01,2013-03-23 13:50:00,
2013-03-23 08:55:00,23.9,23.9,29.03,North,0,0.0,0.0,100,0.00,,CLR,0.00,VWS V14.01,2013-03-23 13:55:00,
2013-03-23 09:00:00,24.2,24.2,29.03,North,0,0.0,0.0,100,0.00,,CLR,0.00,VWS V14.01,2013-03-23 14:00:00,
2013-03-23 09:05:00,24.5,24.5,29.03,North,0,0.0,0.0,100,0.00,,CLR,0.00,VWS V14.01,2013-03-23 14:05:00,
2013-03-23 09:10:00,24.8,24.8,29.04,North,0,0.0,0.0,100,0.00,,CLR,0.00,VWS V14.01,2013-03-23 14:10:00,
2013-03-23 09:15:00,25.2,25.2,29.04,North,0,2.0,3.0,100,0.00,,CLR,0.00,VWS V14.01,2013-03-23 14:15:00,
2013-03-23 09:20:00,25.5,25.5,29.03,North,0,0.0,2.0,100,0.00,,CLR,0.00,VWS V14.01,2013-03-23 14:20:00,
2013-03-23 09:25:00,25.9,25.9,29.03,North,0,3.0,3.0,100,0.00,,CLR,0.00,VWS V14.01,2013-03-23 14:25:00,
2013-03-23 09:30:00,26.2,26.2,29.03,North,356,1.0,2.0,100,0.00,,CLR,0.00,VWS V14.01,2013-03-23 14:30:00,
2013-03-23 09:35:00,26.6,26.6,29.03,NNE,19,1.0,4.0,100,0.00,,CLR,0.00,VWS V14.01,2013-03-23 14:35:00,
2013-03-23 09:40:00,26.9,26.9,29.03,North,0,0.0,1.0,100,0.00,,CLR,0.00,VWS V14.01,2013-03-23 14:40:00,
2013-03-23 09:45:00,27.3,27.3,29.04,North,6,0.0,3.0,100,0.00,,CLR,0.00,VWS V14.01,2013-03-23 14:45:00,
2013-03-23 09:50:00,27.7,27.7,29.03,North,6,1.0,2.0,100,0.00,,CLR,0.00,VWS V14.01,2013-03-23 14:50:00,
2013-03-23 09:55:00,28.0,28.0,29.03,North,8,1.0,5.0,100,0.00,,CLR,0.00,VWS V14.01,2013-03-23 14:55:00,
2013-03-23 10:00:00,28.4,28.4,29.04,North,0,2.0,2.0,100,0.00,,CLR,0.00,VWS V14.01,2013-03-23 15:00:00,
2013-03-23 10:05:00,28.7,28.7,29.03,North,0,0.0,2.0,100,0.00,,CLR,0.00,VWS V14.01,2013-03-23 15:05:00,
2013-03-23 10:10:00,29.0,29.0,29.03,NNE,13,0.0,1.0,100,0.00,,CLR,0.00,VWS V14.01,2013-03-23 15:10:00,
2013-03-23 10:15:00,29.3,29.3,29.04,East,79,0.0,4.0,100,0.00,,CLR,0.00,VWS V14.01,2013-03-23 15:15:00,
2013-03-23 10:20:00,29.6,29.6,29.03,North,4,5.0,5.0,100,0.00,,CLR,0.00,VWS V14.01,2013-03-23 15:20:00,
2013-03-23 10:25:00,29.9,29.9,29.03,NNE,28,3.0,5.0,100,0.00,,CLR,0.00,VWS V14.01,2013-03-23 15:25:00,
2013-03-23 10:30:00,30.1,30.1,29.03,North,6,3.0,3.0,100,0.00,,CLR,0.00,VWS V14.01,2013-03-23 15:30:00,
2013-03-23 10:35:00,30.3,30.3,29.03,North,10,4.0,6.0,100,0.00,,CLR,0.00,VWS V14.01,2013-03-23 15:35:00,
2013-03-23 10:40:00,30.6,30.6,29.03,North,7,4.0,6.0,100,0.00,,CLR,0.00,VWS V14.01,2013-03-23 15:40:00,
2013-03-23 10:45:00,30.8,30.8,29.03,NNE,12,4.0,6.0,100,0.00,,CLR,0.00,VWS V14.01,2013-03-23 15:45:00,
2013-03-23 10:50:00,30.9,30.9,29.04,NNE,31,4.0,5.0,100,0.00,,CLR,0.00,VWS V14.01,2013-03-23 15:50:00,
2013-03-23 10:55:00,31.1,31.1,29.03,NNE,27,4.0,7.0,100,0.00,,CLR,0.00,VWS V14.01,2013-03-23 15:55:00,
2013-03-23 11:00:00,31.3,31.3,29.03,NNE,13,5.0,5.0,100,0.00,,CLR,0.00,VWS V14.01,2013-03-23 16:00:00,
2013-03-23 11:05:00,31.4,31.4,29.04,NNE,18,6.0,8.0,100,0.00,,CLR,0.00,VWS V14.01,2013-03-23 16:05:00,
2013-03-23 11:10:00,31.5,31.5,29.04,North,354,6.0,6.0,100,0.00,,CLR,0.00,VWS V14.01,2013-03-23 16:10:00,
2013-03-23 11:15:00,31.7,31.7,29.04,North,355,3.0,8.0,100,0.00,,CLR,0.00,VWS V14.01,2013-03-23 16:15:00,
2013-03-23 11:20:00,31.8,31.8,29.04,North,0,0.0,1.0,100,0.00,,CLR,0.00,VWS V14.01,2013-03-23 16:20:00,
2013-03-23 11:25:00,32.1,32.1,29.03,NNE,15,3.0,4.0,100,0.00,,CLR,0.00,VWS V14.01,2013-03-23 16:25:00,
2013-03-23 11:30:00,32.4,32.4,29.03,NNE,25,2.0,2.0,100,0.00,,CLR,0.00,VWS V14.01,2013-03-23 16:30:00,
2013-03-23 11:35:00,32.7,32.7,29.04,NNE,24,0.0,6.0,100,0.00,,CLR,0.00,VWS V14.01,2013-03-23 16:35:00,
2013-03-23 11:40:00,33.0,33.0,29.03,North,2,7.0,7.0,100,0.00,,CLR,0.00,VWS V14.01,2013-03-23 16:40:00,
2013-03-23 11:45:00,33.0,33.0,29.04,NNE,19,4.0,7.0,100,0.00,,CLR,0.00,VWS V14.01,2013-03-23 16:45:00,
2013-03-23 11:50:00,33.2,33.2,29.04,North,6,2.0,4.0,100,0.00,,CLR,0.00,VWS V14.01,2013-03-23 16:50:00,
2013-03-23 11:55:00,33.2,33.2,29.03,NNE,15,2.0,6.0,100,0.00,,CLR,0.00,VWS V14.01,2013-03-23 16:55:00,
2013-03-23 12:00:00,33.3,33.3,29.03,North,356,3.0,5.0,100,0.00,,CLR,0.00,VWS V14.01,2013-03-23 17:00:00,
2013-03-23 12:05:00,33.4,33.4,29.03,NE,34,3.0,9.0,100,0.00,,CLR,0.00,VWS V14.01,2013-03-23 17:05:00,
2013-03-23 12:10:00,33.6,33.6,29.03,NNE,14,4.0,5.0,100,0.00,,CLR,0.00,VWS V14.01,2013-03-23 17:10:00,
2013-03-23 12:15:00,33.7,33.7,29.03,NNE,19,1.0,6.0,100,0.00,,CLR,0.00,VWS V14.01,2013-03-23 17:15:00,
2013-03-23 12:20:00,33.8,33.8,29.03,NNE,19,7.0,7.0,100,0.00,,CLR,0.00,VWS V14.01,2013-03-23 17:20:00,
2013-03-23 12:25:00,33.8,33.8,29.03,NNE,21,3.0,7.0,100,0.00,,CLR,0.00,VWS V14.01,2013-03-23 17:25:00,
2013-03-23 12:30:00,33.9,33.9,29.03,North,355,3.0,4.0,100,0.00,,CLR,0.00,VWS V14.01,2013-03-23 17:30:00,
2013-03-23 12:35:00,34.0,34.0,29.03,NNE,31,3.0,8.0,100,0.00,,CLR,0.00,VWS V14.01,2013-03-23 17:35:00,
2013-03-23 12:40:00,34.1,34.1,29.03,North,0,1.0,1.0,100,0.00,,CLR,0.00,VWS V14.01,2013-03-23 17:40:00,
2013-03-23 12:45:00,34.2,34.2,29.03,North,4,2.0,9.0,100,0.00,,CLR,0.00,VWS V14.01,2013-03-23 17:45:00,
2013-03-23 12:50:00,34.3,34.3,29.03,NNE,18,6.0,7.0,100,0.00,,CLR,0.00,VWS V14.01,2013-03-23 17:50:00,
2013-03-23 12:55:00,34.2,34.2,29.03,North,357,6.0,8.0,100,0.00,,CLR,0.00,VWS V14.01,2013-03-23 17:55:00,
2013-03-23 13:00:00,34.4,34.4,29.03,NNE,28,1.0,2.0,100,0.00,,CLR,0.00,VWS V14.01,2013-03-23 18:00:00,
2013-03-23 13:05:00,34.6,34.6,29.03,North,7,2.0,5.0,100,0.00,,CLR,0.00,VWS V14.01,2013-03-23 18:05:00,
2013-03-23 13:10:00,34.7,34.7,29.03,NNE,18,5.0,5.0,100,0.00,,CLR,0.00,VWS V14.01,2013-03-23 18:10:00,
2013-03-23 13:15:00,34.8,34.8,29.03,NNE,15,2.0,6.0,100,0.00,,CLR,0.00,VWS V14.01,2013-03-23 18:15:00,
2013-03-23 13:20:00,35.0,35.0,29.02,North,2,4.0,5.0,100,0.00,,CLR,0.00,VWS V14.01,2013-03-23 18:20:00,
2013-03-23 13:25:00,35.1,35.1,29.02,NNE,21,3.0,7.0,100,0.00,,CLR,0.00,VWS V14.01,2013-03-23 18:25:00,
2013-03-23 13:30:00,35.2,35.2,29.03,ESE,112,3.0,3.0,100,0.00,,CLR,0.00,VWS V14.01,2013-03-23 18:30:00,
2013-03-23 13:35:00,35.3,35.3,29.03,NNE,14,3.0,5.0,100,0.00,,CLR,0.00,VWS V14.01,2013-03-23 18:35:00,
2013-03-23 13:40:00,35.4,35.4,29.03,NNE,19,4.0,4.0,100,0.00,,CLR,0.00,VWS V14.01,2013-03-23 18:40:00,
2013-03-23 13:45:00,35.5,35.5,29.03,North,0,0.0,5.0,100,0.00,,CLR,0.00,VWS V14.01,2013-03-23 18:45:00,
2013-03-23 13:50:00,35.9,35.9,29.03,North,0,1.0,2.0,100,0.00,,CLR,0.00,VWS V14.01,2013-03-23 18:50:00,
2013-03-23 13:55:00,36.1,36.1,29.03,East,79,2.0,4.0,100,0.00,,CLR,0.00,VWS V14.01,2013-03-23 18:55:00,
2013-03-23 14:00:00,36.4,36.4,29.03,ESE,120,0.0,0.0,100,0.00,,CLR,0.00,VWS V14.01,2013-03-23 19:00:00,
2013-03-23 14:05:00,36.4,36.4,29.02,North,5,3.0,5.0,100,0.00,,CLR,0.00,VWS V14.01,2013-03-23 19:05:00,
2013-03-23 14:10:00,36.7,36.7,29.02,North,3,1.0,1.0,100,0.00,,CLR,0.00,VWS V14.01,2013-03-23 19:10:00,
2013-03-23 14:15:00,36.9,36.9,29.02,NNE,23,2.0,5.0,100,0.00,,CLR,0.00,VWS V14.01,2013-03-23 19:15:00,
2013-03-23 14:20:00,36.9,36.9,29.02,North,9,2.0,3.0,100,0.00,,CLR,0.00,VWS V14.01,2013-03-23 19:20:00,
2013-03-23 14:25:00,37.1,37.1,29.02,North,6,3.0,4.0,100,0.00,,CLR,0.00,VWS V14.01,2013-03-23 19:25:00,
2013-03-23 14:30:00,37.3,37.3,29.02,North,0,1.0,1.0,100,0.00,,CLR,0.00,VWS V14.01,2013-03-23 19:30:00,
2013-03-23 14:35:00,37.2,37.2,29.02,NNE,13,1.0,6.0,100,0.00,,CLR,0.00,VWS V14.01,2013-03-23 19:35:00,
2013-03-23 14:40:00,37.1,37.1,29.02,North,11,5.0,5.0,100,0.00,,CLR,0.00,VWS V14.01,2013-03-23 19:40:00,
2013-03-23 14:45:00,37.3,37.3,29.02,NE,51,0.0,5.0,100,0.00,,CLR,0.00,VWS V14.01,2013-03-23 19:45:00,
2013-03-23 14:50:00,37.4,37.4,29.02,NNE,21,3.0,4.0,100,0.00,,CLR,0.00,VWS V14.01,2013-03-23 19:50:00,
2013-03-23 14:55:00,37.5,37.5,29.02,NNW,340,0.0,4.0,100,0.00,,CLR,0.00,VWS V14.01,2013-03-23 19:55:00,
2013-03-23 15:00:00,37.9,37.9,29.01,NNW,338,0.0,0.0,100,0.00,,CLR,0.00,VWS V14.01,2013-03-23 20:00:00,
2013-03-23 15:05:00,38.3,38.3,29.01,NE,43,2.0,3.0,100,0.00,,CLR,0.00,VWS V14.01,2013-03-23 20:05:00,
2013-03-23 15:10:00,38.3,38.3,29.01,NE,55,0.0,0.0,100,0.00,,CLR,0.00,VWS V14.01,2013-03-23 20:10:00,
2013-03-23 15:15:00,38.4,38.4,29.00,NNE,32,3.0,6.0,100,0.00,,CLR,0.00,VWS V14.01,2013-03-23 20:15:00,
2013-03-23 15:20:00,38.3,38.3,29.01,North,2,1.0,4.0,100,0.00,,CLR,0.00,VWS V14.01,2013-03-23 20:20:00,
2013-03-23 15:25:00,38.4,38.4,29.00,North,8,2.0,5.0,100,0.00,,CLR,0.00,VWS V14.01,2013-03-23 20:25:00,
2013-03-23 15:30:00,38.2,38.2,29.00,North,10,5.0,5.0,100,0.00,,CLR,0.00,VWS V14.01,2013-03-23 20:30:00,
2013-03-23 15:35:00,37.8,37.8,28.99,NNE,16,5.0,7.0,100,0.00,,FEW045,0.00,VWS V14.01,2013-03-23 20:35:00,
2013-03-23 15:40:00,37.7,37.7,29.00,ENE,66,3.0,5.0,100,0.00,,FEW045,0.00,VWS V14.01,2013-03-23 20:40:00,
2013-03-23 15:45:00,37.8,37.8,29.00,NNE,15,6.0,6.0,100,0.00,,FEW045,0.00,VWS V14.01,2013-03-23 20:45:00,
2013-03-23 15:50:00,37.7,37.7,29.00,NNW,342,1.0,1.0,100,0.00,,FEW045,0.00,VWS V14.01,2013-03-23 20:50:00,
2013-03-23 15:55:00,38.1,38.1,29.00,NE,35,1.0,4.0,100,0.00,,FEW045,0.00,VWS V14.01,2013-03-23 20:55:00,
2013-03-23 16:00:00,38.3,38.3,29.00,ENE,58,1.0,2.0,100,0.00,,FEW045,0.00,VWS V14.01,2013-03-23 21:00:00,
2013-03-23 16:05:00,38.3,38.3,29.00,NNE,14,3.0,4.0,100,0.00,,FEW045,0.00,VWS V14.01,2013-03-23 21:05:00,
2013-03-23 16:10:00,38.1,38.1,29.00,North,11,2.0,2.0,100,0.00,,FEW045,0.00,VWS V14.01,2013-03-23 21:10:00,
2013-03-23 16:15:00,38.1,38.1,29.00,ENE,76,2.0,5.0,100,0.00,,FEW045,0.00,VWS V14.01,2013-03-23 21:15:00,
2013-03-23 16:20:00,38.2,38.2,29.00,East,100,0.0,1.0,100,0.00,,FEW045,0.00,VWS V14.01,2013-03-23 21:20:00,
2013-03-23 16:25:00,38.2,38.2,29.00,NNE,33,3.0,4.0,100,0.00,,FEW045,0.00,VWS V14.01,2013-03-23 21:25:00,
2013-03-23 16:30:00,38.3,38.3,28.99,NE,55,3.0,3.0,100,0.00,,FEW045,0.00,VWS V14.01,2013-03-23 21:30:00,
2013-03-23 16:35:00,38.3,38.3,28.99,NNE,21,3.0,5.0,100,0.00,,FEW045,0.00,VWS V14.01,2013-03-23 21:35:00,
2013-03-23 16:40:00,37.9,37.9,28.99,North,0,0.0,0.0,100,0.00,,FEW045,0.00,VWS V14.01,2013-03-23 21:40:00,
2013-03-23 16:45:00,37.6,37.6,28.98,NNE,18,2.0,6.0,100,0.00,,FEW045,0.00,VWS V14.01,2013-03-23 21:45:00,
2013-03-23 16:50:00,37.4,37.4,28.98,NE,37,1.0,1.0,100,0.00,,FEW045,0.00,VWS V14.01,2013-03-23 21:50:00,
2013-03-23 16:55:00,37.2,37.2,28.98,North,0,0.0,4.0,100,0.00,,FEW045,0.00,VWS V14.01,2013-03-23 21:55:00,
2013-03-23 17:00:00,37.0,37.0,28.98,North,2,1.0,1.0,100,0.00,,FEW045,0.00,VWS V14.01,2013-03-23 22:00:00,
2013-03-23 17:05:00,36.8,36.8,28.98,NNE,25,0.0,3.0,100,0.00,,FEW045,0.00,VWS V14.01,2013-03-23 22:05:00,
2013-03-23 17:10:00,36.7,36.7,28.98,NNE,25,3.0,3.0,100,0.00,,FEW045,0.00,VWS V14.01,2013-03-23 22:10:00,
2013-03-23 17:15:00,36.6,36.6,28.98,NE,37,4.0,4.0,100,0.00,,FEW045,0.00,VWS V14.01,2013-03-23 22:15:00,
2013-03-23 17:20:00,36.4,36.4,28.98,NNE,26,1.0,3.0,100,0.00,,FEW045,0.00,VWS V14.01,2013-03-23 22:20:00,
2013-03-23 17:25:00,36.5,36.5,28.98,North,8,3.0,4.0,100,0.00,,FEW045,0.00,VWS V14.01,2013-03-23 22:25:00,
2013-03-23 17:30:00,36.3,36.3,28.98,NNE,30,1.0,2.0,100,0.00,,FEW045,0.00,VWS V14.01,2013-03-23 22:30:00,
2013-03-23 17:35:00,36.1,36.1,28.98,NNE,33,2.0,5.0,100,0.00,,CLR,0.00,VWS V14.01,2013-03-23 22:35:00,
2013-03-23 17:40:00,36.4,36.4,28.98,NE,40,0.0,0.0,100,0.00,,CLR,0.00,VWS V14.01,2013-03-23 22:40:00,
2013-03-23 17:45:00,36.3,36.3,28.98,NNE,26,2.0,4.0,100,0.00,,CLR,0.00,VWS V14.01,2013-03-23 22:45:00,
2013-03-23 17:50:00,36.3,36.3,28.98,NNE,32,0.0,1.0,100,0.00,,CLR,0.00,VWS V14.01,2013-03-23 22:50:00,
2013-03-23 17:55:00,36.1,36.1,28.98,NNE,12,0.0,3.0,100,0.00,,CLR,0.00,VWS V14.01,2013-03-23 22:55:00,
2013-03-23 18:00:00,36.0,36.0,28.98,NNE,28,0.0,1.0,100,0.00,,CLR,0.00,VWS V14.01,2013-03-23 23:00:00,
2013-03-23 18:05:00,36.1,36.1,28.98,NNE,28,1.0,3.0,100,0.00,,CLR,0.00,VWS V14.01,2013-03-23 23:05:00,
2013-03-23 18:10:00,35.9,35.9,28.98,NNE,15,4.0,4.0,100,0.00,,CLR,0.00,VWS V14.01,2013-03-23 23:10:00,
2013-03-23 18:15:00,35.5,35.5,28.98,NNE,30,2.0,5.0,100,0.00,,CLR,0.00,VWS V14.01,2013-03-23 23:15:00,
2013-03-23 18:20:00,35.1,35.1,28.98,NNE,30,0.0,0.0,100,0.00,,CLR,0.00,VWS V14.01,2013-03-23 23:20:00,
2013-03-23 18:25:00,34.7,34.7,28.97,NNE,30,1.0,3.0,100,0.00,,CLR,0.00,VWS V14.01,2013-03-23 23:25:00,
2013-03-23 18:30:00,34.4,34.4,28.98,NNE,30,0.0,1.0,100,0.00,,CLR,0.00,VWS V14.01,2013-03-23 23:30:00,
2013-03-23 18:35:00,34.2,34.2,28.98,NNE,30,0.0,1.0,100,0.00,,CLR,0.00,VWS V14.01,2013-03-23 23:35:00,
2013-03-23 18:40:00,33.9,33.9,28.98,NNE,30,0.0,0.0,100,0.00,,CLR,0.00,VWS V14.01,2013-03-23 23:40:00,
2013-03-23 18:45:00,33.6,33.6,28.98,NNE,30,0.0,3.0,100,0.00,,CLR,0.00,VWS V14.01,2013-03-23 23:45:00,
2013-03-23 18:50:00,33.4,33.4,28.98,NNE,30,0.0,0.0,100,0.00,,CLR,0.00,VWS V14.01,2013-03-23 23:50:00,
2013-03-23 18:55:00,33.2,33.2,28.98,NNE,30,1.0,2.0,100,0.00,,CLR,0.00,VWS V14.01,2013-03-23 23:55:00,
2013-03-23 19:00:00,32.9,32.9,28.98,NNE,30,0.0,0.0,100,0.00,,CLR,0.00,VWS V14.01,2013-03-24 00:00:00,
2013-03-23 19:05:00,32.7,32.7,28.98,NNE,30,0.0,3.0,100,0.00,,CLR,0.00,VWS V14.01,2013-03-24 00:05:00,
2013-03-23 19:10:00,32.5,32.5,28.98,NNE,30,0.0,0.0,100,0.00,,CLR,0.00,VWS V14.01,2013-03-24 00:10:00,
2013-03-23 19:15:00,32.3,32.3,28.98,NNE,30,0.0,0.0,100,0.00,,CLR,0.00,VWS V14.01,2013-03-24 00:15:00,
2013-03-23 19:20:00,32.1,32.1,28.98,NNE,30,0.0,0.0,100,0.00,,CLR,0.00,VWS V14.01,2013-03-24 00:20:00,
2013-03-23 19:25:00,31.9,31.9,28.98,NNE,30,0.0,0.0,100,0.00,,CLR,0.00,VWS V14.01,2013-03-24 00:25:00,
2013-03-23 19:30:00,31.8,31.8,28.98,NNE,30,0.0,0.0,100,0.00,,CLR,0.00,VWS V14.01,2013-03-24 00:30:00,
2013-03-23 19:35:00,31.6,31.6,28.98,NNE,30,0.0,0.0,100,0.00,,CLR,0.00,VWS V14.01,2013-03-24 00:35:00,
2013-03-23 19:40:00,31.4,31.4,28.98,NNE,30,0.0,0.0,100,0.00,,CLR,0.00,VWS V14.01,2013-03-24 00:40:00,
2013-03-23 19:45:00,31.3,31.3,28.98,NNE,30,0.0,0.0,100,0.00,,CLR,0.00,VWS V14.01,2013-03-24 00:45:00,
2013-03-23 19:50:00,31.1,31.1,28.98,NNE,30,0.0,0.0,100,0.00,,CLR,0.00,VWS V14.01,2013-03-24 00:50:00,
2013-03-23 19:55:00,30.9,30.9,28.98,NNE,30,0.0,1.0,100,0.00,,CLR,0.00,VWS V14.01,2013-03-24 00:55:00,
2013-03-23 20:00:00,30.8,30.8,28.98,NNE,30,1.0,1.0,100,0.00,,CLR,0.00,VWS V14.01,2013-03-24 01:00:00,
2013-03-23 20:05:00,30.6,30.6,28.97,NNE,30,1.0,1.0,100,0.00,,CLR,0.00,VWS V14.01,2013-03-24 01:05:00,
2013-03-23 20:10:00,30.5,30.5,28.97,NNE,30,0.0,0.0,100,0.00,,CLR,0.00,VWS V14.01,2013-03-24 01:10:00,
2013-03-23 20:15:00,30.4,30.4,28.98,NNE,30,0.0,0.0,100,0.00,,CLR,0.00,VWS V14.01,2013-03-24 01:15:00,
2013-03-23 20:20:00,30.2,30.2,28.98,NNE,30,1.0,1.0,100,0.00,,CLR,0.00,VWS V14.01,2013-03-24 01:20:00,
2013-03-23 20:25:00,30.2,30.2,28.98,NNE,30,0.0,2.0,100,0.00,,CLR,0.00,VWS V14.01,2013-03-24 01:25:00,
2013-03-23 20:30:00,30.1,30.1,28.99,NNE,30,0.0,1.0,100,0.00,,CLR,0.00,VWS V14.01,2013-03-24 01:30:00,
2013-03-23 20:35:00,30.0,30.0,28.99,NNE,30,1.0,2.0,100,0.00,,CLR,0.00,VWS V14.01,2013-03-24 01:35:00,
2013-03-23 20:40:00,29.9,29.9,28.99,NNE,30,2.0,2.0,100,0.00,,CLR,0.00,VWS V14.01,2013-03-24 01:40:00,
2013-03-23 20:45:00,29.8,29.8,28.99,NNE,30,0.0,3.0,100,0.00,,CLR,0.00,VWS V14.01,2013-03-24 01:45:00,
2013-03-23 20:50:00,29.7,29.7,28.99,NNE,30,1.0,2.0,100,0.00,,CLR,0.00,VWS V14.01,2013-03-24 01:50:00,
2013-03-23 20:55:00,29.6,29.6,28.99,NNE,30,2.0,2.0,100,0.00,,CLR,0.00,VWS V14.01,2013-03-24 01:55:00,
2013-03-23 21:00:00,29.5,29.5,28.99,NNE,30,2.0,2.0,100,0.00,,CLR,0.00,VWS V14.01,2013-03-24 02:00:00,
2013-03-23 21:05:00,29.4,29.4,28.99,NNE,30,2.0,2.0,100,0.00,,CLR,0.00,VWS V14.01,2013-03-24 02:05:00,
2013-03-23 21:10:00,29.4,29.4,29.00,NNE,29,0.0,0.0,100,0.00,,CLR,0.00,VWS V14.01,2013-03-24 02:10:00,
2013-03-23 21:15:00,29.3,29.3,29.00,NNE,29,1.0,2.0,100,0.00,,CLR,0.00,VWS V14.01,2013-03-24 02:15:00,
2013-03-23 21:20:00,29.2,29.2,29.00,NNE,29,2.0,2.0,100,0.00,,CLR,0.00,VWS V14.01,2013-03-24 02:20:00,
2013-03-23 21:25:00,29.2,29.2,29.00,NNE,29,0.0,2.0,100,0.00,,CLR,0.00,VWS V14.01,2013-03-24 02:25:00,
2013-03-23 21:30:00,29.1,29.1,29.00,NNE,29,1.0,2.0,100,0.00,,CLR,0.00,VWS V14.01,2013-03-24 02:30:00,
2013-03-23 21:35:00,29.1,29.1,28.99,NNE,29,0.0,2.0,100,0.00,,CLR,0.00,VWS V14.01,2013-03-24 02:35:00,
2013-03-23 21:40:00,29.0,29.0,28.99,NNE,29,0.0,0.0,100,0.00,,CLR,0.00,VWS V14.01,2013-03-24 02:40:00,
2013-03-23 21:45:00,28.9,28.9,28.99,NNE,29,2.0,2.0,100,0.00,,CLR,0.00,VWS V14.01,2013-03-24 02:45:00,
2013-03-23 21:50:00,28.9,28.9,28.99,NNE,29,2.0,2.0,100,0.00,,CLR,0.00,VWS V14.01,2013-03-24 02:50:00,
2013-03-23 21:55:00,28.8,28.8,28.99,NNE,29,2.0,2.0,100,0.00,,CLR,0.00,VWS V14.01,2013-03-24 02:55:00,
2013-03-23 22:00:00,28.8,28.8,29.00,NNE,29,0.0,0.0,100,0.00,,CLR,0.00,VWS V14.01,2013-03-24 03:00:00,
2013-03-23 22:05:00,28.8,28.8,29.00,NNE,29,3.0,3.0,100,0.00,,CLR,0.00,VWS V14.01,2013-03-24 03:05:00,
2013-03-23 22:10:00,28.7,28.7,29.00,NNE,29,1.0,1.0,100,0.00,,CLR,0.00,VWS V14.01,2013-03-24 03:10:00,
2013-03-23 22:15:00,28.7,28.7,28.99,NNE,29,2.0,3.0,100,0.00,,CLR,0.00,VWS V14.01,2013-03-24 03:15:00,
2013-03-23 22:20:00,28.6,28.6,28.99,NNE,29,2.0,3.0,100,0.00,,CLR,0.00,VWS V14.01,2013-03-24 03:20:00,
2013-03-23 22:25:00,28.6,28.6,28.99,NNE,21,2.0,3.0,100,0.00,,CLR,0.00,VWS V14.01,2013-03-24 03:25:00,
2013-03-23 22:30:00,28.6,28.6,28.99,NNE,21,0.0,0.0,100,0.00,,CLR,0.00,VWS V14.01,2013-03-24 03:30:00,
2013-03-23 22:35:00,28.5,28.5,28.99,NNE,21,0.0,2.0,100,0.00,,CLR,0.00,VWS V14.01,2013-03-24 03:35:00,
2013-03-23 22:40:00,28.5,28.5,28.99,NNE,21,0.0,0.0,100,0.00,,CLR,0.00,VWS V14.01,2013-03-24 03:40:00,
2013-03-23 22:45:00,28.5,28.5,28.99,NNE,21,0.0,0.0,100,0.00,,CLR,0.00,VWS V14.01,2013-03-24 03:45:00,
2013-03-23 22:50:00,28.5,28.5,28.99,NNE,21,0.0,0.0,100,0.00,,CLR,0.00,VWS V14.01,2013-03-24 03:50:00,
2013-03-23 22:55:00,28.4,28.4,29.00,NNE,21,0.0,0.0,100,0.00,,CLR,0.00,VWS V14.01,2013-03-24 03:55:00,
2013-03-23 23:00:00,28.4,28.4,29.00,NNE,21,0.0,0.0,100,0.00,,CLR,0.00,VWS V14.01,2013-03-24 04:00:00,
2013-03-23 23:05:00,28.3,28.3,28.99,NNE,21,0.0,0.0,100,0.00,,CLR,0.00,VWS V14.01,2013-03-24 04:05:00,
2013-03-23 23:10:00,28.3,28.3,28.99,NNE,21,0.0,0.0,100,0.00,,CLR,0.00,VWS V14.01,2013-03-24 04:10:00,
2013-03-23 23:15:00,28.3,28.3,28.99,NNE,21,0.0,0.0,100,0.00,,CLR,0.00,VWS V14.01,2013-03-24 04:15:00,
2013-03-23 23:20:00,28.2,28.2,28.99,NNE,21,0.0,0.0,100,0.00,,CLR,0.00,VWS V14.01,2013-03-24 04:20:00,
2013-03-23 23:25:00,28.2,28.2,28.99,NNE,21,0.0,0.0,100,0.00,,CLR,0.00,VWS V14.01,2013-03-24 04:25:00,
2013-03-23 23:30:00,28.2,28.2,28.99,NNE,21,0.0,0.0,100,0.00,,CLR,0.00,VWS V14.01,2013-03-24 04:30:00,
2013-03-23 23:35:00,28.2,28.2,28.99,NNE,21,0.0,0.0,100,0.00,,CLR,0.00,VWS V14.01,2013-03-24 04:35:00,
2013-03-23 23:40:00,28.2,28.2,28.99,NNE,21,0.0,0.0,100,0.00,,CLR,0.00,VWS V14.01,2013-03-24 04:40:00,
2013-03-23 23:45:00,28.2,28.2,28.99,North,9,1.0,3.0,100,0.00,,CLR,0.00,VWS V14.01,2013-03-24 04:45:00,
2013-03-23 23:50:00,28.2,28.2,28.99,North,9,2.0,2.0,100,0.00,,CLR,0.00,VWS V14.01,2013-03-24 04:50:00,
2013-03-23 23:55:00,28.1,28.1,28.98,North,9,1.0,3.0,100,0.00,,CLR,0.00,VWS V14.01,2013-03-24 04:55:00,